This demonstration page uses our WeatherBlox Daily Observations layout. Learn more.

Hourly Observations for November 3, 2019

Temp ( °F °C ) Dew Point ( °F °C ) Humidity (%) Winds ( mph kmh ) Pressure ( in mb ) Visibility ( mi km ) Precip ( " mm )
12:15 am 00:15 Clear 36 2.1 22 -5.5 58 58 WNW 5 7 30.16 1021 10 16.0934 0 0
12:35 am 00:35 Clear 37 3 22 -5.3 55 55 WNW 5 7 30.14 1021 10 16.0934 0 0
12:55 am 00:55 Clear 35 1.8 22 -5.4 59 59 WNW 5 7 30.15 1021 10 16.0934 0 0
1:15 am 01:15 Clear 34 1 22 -5.7 61 61 WNW 5 7 30.16 1021 10 16.0934 0 0
1:35 am 01:35 Clear 36 2.3 22 -5.3 58 58 W 6 9 30.14 1021 10 16.0934 0 0
1:55 am 01:55 Clear 34 1 23 -4.9 65 65 W 5 7 30.15 1021 10 16.0934 0 0
1:15 am 01:15 Clear 32 -0.1 22 -5.5 67 67 W 5 7 30.17 1022 10 16.0934 0 0
1:35 am 01:35 Clear 28 -2.3 20 -6.5 73 73 WNW 5 7 30.18 1022 10 16.0934 0 0
1:55 am 01:55 Clear 31 -0.6 22 -5.8 68 68 W 3 6 30.15 1021 10 16.0934 0 0
2:15 am 02:15 Clear 32 0 22 -5.8 65 65 WNW 3 6 30.15 1021 10 16.0934 0 0
2:35 am 02:35 Clear 34 1.1 22 -5.4 62 62 SSW 6 9 30.13 1020 10 16.0934 0 0
2:55 am 02:55 Clear 33 0.5 22 -5.4 65 65 Calm 30.13 1020 10 16.0934 0 0
3:15 am 03:15 Clear 32 -0.1 22 -5.6 67 67 Calm 30.14 1021 10 16.0934 0 0
3:35 am 03:35 Clear 29 -1.9 21 -5.9 74 74 W 3 6 30.13 1020 10 16.0934 0 0
3:55 am 03:55 Clear 29 -1.4 22 -5.7 73 73 W 3 6 30.13 1020 10 16.0934 0 0
4:15 am 04:15 Clear 30 -0.9 22 -5.3 72 72 Calm 30.11 1020 10 16.0934 0 0
4:35 am 04:35 Clear 28 -2.3 21 -6.2 75 75 Calm 30.13 1020 10 16.0934 0 0
4:55 am 04:55 Clear 27 -2.6 21 -6.1 77 77 Calm 30.13 1020 10 16.0934 0 0
5:15 am 05:15 Clear 28 -2.1 22 -5.8 76 76 Calm 30.12 1020 10 16.0934 0 0
5:35 am 05:35 Clear 26 -3.1 20 -6.4 78 78 Calm 30.12 1020 10 16.0934 0 0
5:55 am 05:55 Clear 27 -2.7 21 -6.1 78 78 Calm 30.12 1020 10 16.0934 0 0
6:15 am 06:15 Clear 27 -3 21 -6 80 80 W 5 7 30.11 1020 10 16.0934 0 0
6:35 am 06:35 Clear 28 -2.2 22 -5.4 79 79 SW 10 17 30.11 1020 10 16.0934 0 0
6:55 am 06:55 Clear 28 -2.1 22 -5.6 77 77 WSW 3 6 30.11 1019 10 16.0934 0 0
7:15 am 07:15 Sunny 28 -2.5 21 -5.9 78 78 Calm 30.11 1020 10 16.0934 0 0
7:35 am 07:35 Sunny 29 -1.7 22 -5.6 75 75 W 5 7 30.1 1019 10 16.0934 0 0
7:55 am 07:55 Sunny 30 -1.3 23 -5.1 76 76 S 5 7 30.1 1019 10 16.0934 0 0
8:15 am 08:15 Sunny 33 0.6 24 -4.5 69 69 Calm 30.08 1019 10 16.0934 0 0
8:35 am 08:35 Sunny 36 2.2 25 -3.7 65 65 Calm 30.06 1018 10 16.0934 0 0
8:55 am 08:55 Sunny 40 4.4 26 -3.2 58 58 W 5 7 30.04 1017 10 16.0934 0 0
9:15 am 09:15 Sunny 43 6 26 -3.3 52 52 WNW 6 9 30.04 1017 10 16.0934 0 0
9:35 am 09:35 Sunny 47 8.3 28 -2.5 47 47 W 3 6 30 1016 10 16.0934 0 0
9:55 am 09:55 Sunny 48 8.9 27 -2.7 44 44 W 5 7 30 1016 10 16.0934 0 0
10:15 am 10:15 Mostly Cloudy 49 9.3 27 -2.9 43 43 WNW 5 7 30 1016 10 16.0934 0 0
10:35 am 10:35 Mostly Cloudy 51 10.4 27 -2.7 40 40 W 6 9 29.98 1015 10 16.0934 0 0
10:55 am 10:55 Cloudy 52 11 26 -3.5 36 36 W 7 11 29.97 1015 10 16.0934 0 0
11:15 am 11:15 Cloudy 54 12.3 26 -3.2 34 34 WSW 3 6 29.95 1014 10 16.0934 0 0
11:35 am 11:35 Partly Cloudy 55 13 27 -3 33 33 WSW 3 6 29.94 1014 10 16.0934 0 0
11:55 am 11:55 Sunny 56 13.2 26 -3.3 32 32 SW 7 11 29.91 1013 10 16.0934 0 0
12:15 pm 12:15 Sunny 57 14.1 26 -3.5 30 30 WSW 7 11 29.9 1012 10 16.0934 0 0
12:35 pm 12:35 Sunny 59 14.9 26 -3.4 28 28 SW 7 11 29.88 1012 10 16.0934 0 0
12:55 pm 12:55 Sunny 59 15.1 26 -3.5 28 28 SW 9 15 29.86 1011 10 16.0934 0 0
1:15 pm 13:15 Sunny 59 15.2 25 -3.7 27 27 SW 9 15 29.85 1011 10 16.0934 0 0
1:35 pm 13:35 Sunny 60 15.8 25 -3.7 26 26 WSW 10 17 29.83 1010 10 16.0934 0 0
1:55 pm 13:55 Sunny 61 16.1 25 -3.7 26 26 W 13 20 29.83 1010 10 16.0934 0 0
2:15 pm 14:15 Sunny 61 16.2 25 -3.7 25 25 W 9 15 29.83 1010 10 16.0934 0 0
2:35 pm 14:35 Sunny 62 16.5 26 -3.5 25 25 W 10 17 29.82 1010 10 16.0934 0 0
2:55 pm 14:55 Sunny 61 16.3 26 -3.1 26 26 WSW 12 19 29.82 1010 10 16.0934 0 0
3:15 pm 15:15 Sunny 62 16.5 27 -3 26 26 WSW 8 13 29.81 1009 10 16.0934 0 0
3:35 pm 15:35 Sunny 62 16.5 27 -2.7 27 27 WSW 9 15 29.81 1009 10 16.0934 0 0
3:55 pm 15:55 Sunny 61 15.9 27 -2.6 28 28 WSW 7 11 29.81 1010 10 16.0934 0 0
4:15 pm 16:15 Sunny 60 15.4 28 -2.4 30 30 WSW 6 9 29.82 1010 10 16.0934 0 0
4:35 pm 16:35 Sunny 59 15.1 27 -2.7 29 29 WSW 7 11 29.83 1010 10 16.0934 0 0
4:55 pm 16:55 Sunny 59 15.2 27 -3 29 29 W 7 11 29.82 1010 10 16.0934 0 0
5:15 pm 17:15 Sunny 56 13.5 27 -2.9 32 32 W 8 13 29.83 1010 10 16.0934 0 0
5:35 pm 17:35 Clear 55 12.5 26 -3.1 34 34 W 8 13 29.84 1011 10 16.0934 0 0
5:55 pm 17:55 Clear 52 11 26 -3.2 37 37 W 10 17 29.87 1012 10 16.0934 0 0
6:15 pm 18:15 Clear 55 12.8 27 -3 33 33 WNW 9 15 29.88 1012 10 16.0934 0 0
6:35 pm 18:35 Clear 52 11 27 -2.9 38 38 WNW 8 13 29.89 1012 10 16.0934 0 0
6:55 pm 18:55 Clear 49 9.2 28 -2 46 46 NW 8 13 29.92 1013 10 16.0934 0 0
7:15 pm 19:15 Clear 46 7.6 30 -1 55 55 NW 7 11 29.94 1014 10 16.0934 0 0
7:35 pm 19:35 Clear 48 8.7 31 -0.5 53 53 NNW 9 15 29.94 1014 10 16.0934 0 0
7:55 pm 19:55 Partly Cloudy 47 8.5 31 -0.5 53 53 NNW 8 13 29.95 1014 10 16.0934 0 0
8:15 pm 20:15 Partly Cloudy 47 8.4 31 -0.3 55 55 NNW 8 13 29.96 1014 10 16.0934 0 0
8:35 pm 20:35 Partly Cloudy 46 7.8 32 -0.2 57 57 NW 6 9 29.97 1015 10 16.0934 0 0
8:55 pm 20:55 Partly Cloudy 45 7.1 31 -0.4 59 59 NW 6 9 29.99 1016 10 16.0934 0 0
9:15 pm 21:15 Partly Cloudy 43 6.1 31 -0.6 63 63 NW 5 7 30 1016 10 16.0934 0 0
9:35 pm 21:35 Clear 41 5 30 -0.9 66 66 WNW 5 7 30.02 1017 10 16.0934 0 0
9:55 pm 21:55 Clear 41 5 31 -0.5 68 68 NNW 5 7 30.03 1017 10 16.0934 0 0
10:15 pm 22:15 Clear 40 4.2 31 -0.5 72 72 N 7 11 30.05 1017 10 16.0934 0 0
10:35 pm 22:35 Clear 43 5.9 32 0.2 67 67 N 7 11 30.03 1017 10 16.0934 0 0
10:55 pm 22:55 Partly Cloudy 43 6 33 0.6 69 69 N 6 9 30.03 1017 10 16.0934 0 0
11:15 pm 23:15 Partly Cloudy 43 6.1 34 0.9 70 70 N 6 9 30.04 1017 10 16.0934 0 0
11:35 pm 23:35 Mostly Cloudy 43 6 34 1.1 71 71 N 6 9 30.04 1017 10 16.0934 0 0
11:55 pm 23:55 Cloudy 42 5.3 34 1.1 75 75 N 7 11 30.05 1017 10 16.0934 0 0

Powered by AerisWeather